Home > Weather > Mosbach > Past weeks

Flag for Germany Weather for the Past 2 Weeks in Mosbach, Baden-Württemberg, Germany

Now
39 °F

Mostly cloudy.


Feels Like: 32 °F
Forecast: 42 / 52 °F
Wind: 12 mph from Southwest

Location: Niederstetten

Current Time: Feb 7, 2016 at 11:16:55 PM

Latest Report: Feb 7, 2016 at 10:20 PM


Visibility: N/A

Pressure: 29.80 "Hg

Humidity: 87%

Dew point: 36 °F

Location of MosbachLocation

Historic Weather in Mosbach — Graph

°F

Mosbach Temperature Yesterday

Maximum temperature yesterday: 54 °F (at 2:20 PM)
Minimum temperature yesterday: 36 °F (at 4:20 AM)
Average temperature yesterday: 43 °F

High & Low Weather Summary for the Past Weeks

 TemperatureHumidityPressure
High54 °F (Jan 26, 12:20 PM)100% (Jan 23, 9:20 PM)30.60 "Hg (Jan 23, 9:20 PM)
Low30 °F (Feb 3, 7:20 PM)54% (Jan 27, 2:20 PM)29.59 "Hg (Feb 7, 12:20 PM)
Average42 °F83%30.15 "Hg
* Reported Jan 23 9:20 PM — Feb 7 9:20 PM, Mosbach, Weather by CustomWeather, © 2016

Note: Actual official high and low records may vary slightly from our data, if they occured in-between our weather recording intervals... More about our weather records

Advertising

Mosbach Weather History for the Previous 24 Hours

 ConditionsComfort  
Time TempWeatherWind HumidityBarometerVisibility
9:20 PM
Sun, Feb 7
41 °FOvercast.14 mph76%29.80 "HgN/A
8:20 PM43 °FOvercast.17 mph71%29.80 "HgN/A
7:20 PM43 °FPartly cloudy.15 mph76%29.77 "HgN/A
6:20 PM43 °FPassing clouds.17 mph76%29.77 "HgN/A
5:20 PM43 °FBroken clouds.13 mph81%29.74 "HgN/A
4:20 PM45 °FPartly sunny.14 mph76%29.71 "HgN/A
3:20 PM45 °FPartly sunny.17 mph81%29.68 "HgN/A
2:20 PM46 °FPartly sunny.14 mph71%29.65 "HgN/A
1:20 PM46 °FBroken clouds.10 mph62%29.62 "HgN/A
12:20 PM48 °FPartly sunny.8 mph58%29.59 "HgN/A
11:20 AM46 °FBroken clouds.10 mph62%29.62 "HgN/A
10:20 AM45 °FMore clouds than sun.8 mph61%29.62 "HgN/A
9:20 AM41 °FBroken clouds.7 mph70%29.62 "HgN/A
8:20 AM39 °FPartly sunny.7 mph75%29.65 "HgN/A
7:20 AM41 °FPassing clouds.8 mph66%29.65 "HgN/A
6:20 AM43 °FPartly cloudy.9 mph61%29.65 "HgN/A
5:20 AM41 °FPassing clouds.8 mph66%29.68 "HgN/A
4:20 AM41 °FPassing clouds.9 mph66%29.68 "HgN/A
3:20 AM41 °FPassing clouds.10 mph66%29.71 "HgN/A
2:20 AM41 °FPassing clouds.10 mph70%29.71 "HgN/A
1:20 AM41 °FPassing clouds.8 mph76%29.74 "HgN/A
12:20 AM41 °FPassing clouds.8 mph81%29.74 "HgN/A
11:20 PM
Sat, Feb 6
41 °FPassing clouds.10 mph81%29.77 "HgN/A
Weather by CustomWeather, © 2016

See weather overviewHow to use our weather pages